Voltar ao catálogo

STARLINK-35986

AtivoComunicaçõesVLEO
NORAD 66853·PAYLOAD·🇺🇸 United States

Lançado Dec 2, 2025 de Cape Canaveral Space Force Station

Loading…

Próximas Passagens (próximas 24 horas)

TLE

AtualizadoSource: CelesTrak SupGP

Época: Sep 15, 2026, 03:06 UTC

1 66853C 25281F   26258.12965278  .00036787  00000+0  13325-2 0  2583
2 66853  43.0014 353.4287 0001597 265.3268 327.2279 15.27557342    12

Acompanhe STARLINK-35986 em tempo real com AllMySat

Download on the App Store